This demonstration page uses our WeatherBlox Daily Observations layout. Learn more.

Left ArrowRight Arrow

Hourly Observations for May 2, 2018

Temp ( °F °C ) Dew Point ( °F °C ) Humidity (%) Winds ( mph kmh ) Pressure ( in mb ) Visibility ( mi km ) Precip ( " mm )
12:40 am 00:40 Mostly Cloudy 54 12 48 9 82 82 NNE 12 19 29.83 1010 10 16 0.00 0.00
12:56 am 00:56 Cloudy 54 12.2 49 9.4 83 83 NE 8 13 29.81 1009 10 16 0.00 0.00
1:28 am 01:28 Mostly Clear 54 12 48 9 82 82 N 10 17 29.85 1011 10 16 0.00 0.00
1:56 am 01:56 Partly Cloudy 53 11.7 48 8.9 83 83 N 10 17 29.82 1010 10 16 0.00 0.00
2:04 am 02:04 Mostly Cloudy 54 12 48 9 82 82 N 10 17 29.85 1011 10 16 0.00 0.00
2:56 am 02:56 Cloudy 54 12.2 48 8.9 80 80 N 9 15 29.81 1010 10 16 0.00 0.00
3:56 am 03:56 Cloudy 53 11.7 47 8.3 80 80 N 10 17 29.84 1010 10 16 0.00 0.00
4:56 am 04:56 Mostly Cloudy 50 10 45 7.2 83 83 N 15 24 29.84 1011 10 16 0.00 0.00
5:19 am 05:19 Mostly Clear 48 9 45 7 87 87 NNE 12 19 29.88 1012 10 16 0.00 0.00
5:56 am 05:56 Clear 48 8.9 44 6.7 86 86 N 12 19 29.86 1011 10 16 0.00 0.00
6:56 am 06:56 Sunny 48 8.9 45 7.2 89 89 NNE 13 20 29.88 1012 10 16 0.00 0.00
7:56 am 07:56 Mostly Sunny 49 9.4 46 7.8 90 90 NNE 10 17 29.92 1013 10 16 0.00 0.00
8:56 am 08:56 Mostly Cloudy 52 11.1 47 8.3 83 83 NNE 14 22 29.93 1013 10 16 0.00 0.00
9:26 am 09:26 Cloudy 54 12 46 8 77 77 NNE 16 26 29.91 1013 10 16 0.00 0.00
9:56 am 09:56 Mostly Cloudy 54 12.2 47 8.3 77 77 NE 17 28 29.93 1014 10 16 0.00 0.00
10:56 am 10:56 Sunny 59 15 46 7.8 62 62 ENE 24 39 29.86 1011 10 16 0.00 0.00
11:28 am 11:28 Cloudy 59 15 46 8 63 63 ENE 17 28 29.85 1011 10 16 0.00 0.00
11:56 am 11:56 Cloudy 58 14.4 46 7.8 65 65 NE 15 24 29.91 1013 10 16 0.00 0.00
12:56 pm 12:56 Cloudy 58 14.4 47 8.3 67 67 NNE 17 28 29.91 1013 10 16 0.00 0.00
1:56 pm 13:56 Cloudy 58 14.4 46 7.8 65 65 NNE 18 30 29.90 1013 10 16 0.00 0.00
2:56 pm 14:56 Cloudy 59 15 46 7.8 62 62 ENE 18 30 29.89 1012 10 16 0.00 0.00
3:56 pm 15:56 Cloudy 60 15.6 46 7.8 60 60 ENE 18 30 29.87 1012 10 16 0.00 0.00
4:56 pm 16:56 Cloudy 60 15.6 46 7.8 60 60 ENE 20 31 29.85 1011 10 16 0.00 0.00
5:56 pm 17:56 Cloudy 59 15 47 8.3 64 64 E 20 31 29.85 1011 10 16 0.00 0.00
6:56 pm 18:56 Cloudy 57 13.9 44 6.7 62 62 ENE 21 33 29.84 1011 10 16 0.00 0.00
7:56 pm 19:56 Cloudy 57 13.9 47 8.3 69 69 ENE 17 28 29.83 1010 10 16 0.00 0.00
8:13 pm 20:13 Cloudy 55 13 46 8 72 72 ENE 18 30 29.85 1011 10 16 0.00 0.00
8:56 pm 20:56 Cloudy 55 12.8 46 7.8 72 72 NE 15 24 29.84 1011 10 16 0.00 0.00
9:56 pm 21:56 Cloudy 55 12.8 46 7.8 72 72 NE 13 20 29.86 1011 10 16 0.00 0.00
11:56 pm 23:56 Cloudy 54 12.2 46 7.8 75 75 NE 8 13 29.90 1013 10 16 0.00 0.00

Powered by AerisWeather